Location: Unspecified
(0.0000°N, 0.0000°E)
Time: 23:29:24
(UTC+01:00)

BREEZE-M DEB (TANK) - Visible Passes

Search period start: 05 March 2015 00:00
Search period end: 15 March 2015 00:00
Orbit: 324 x 16397 km, 49.4° (Epoch: 05 March)

Date Brightness Start Highest point End Pass type
(mag) Time Alt. Az. Time Alt. Az. Time Alt. Az.
05 Mar 8.1 05:10:44 10° NW 06:16:20 24° NNE 08:47:15 10° E visible
06 Mar 7.9 00:54:07 19° NNE 00:54:07 19° NNE 01:05:38 10° NNE visible
06 Mar 8.3 06:05:33 10° NNW 08:12:17 38° NNE 09:41:03 10° ESE visible
07 Mar 7.8 01:37:58 25° NNE 01:37:58 25° NNE 02:01:26 10° NNE visible
08 Mar 7.8 02:21:45 26° N 02:21:45 26° N 03:03:32 10° NNE visible
09 Mar 7.8 03:05:29 22° NNW 03:10:14 22° N 04:42:34 10° NE visible
10 Mar 7.9 03:49:11 15° NNW 04:13:33 20° N 07:07:52 10° E visible
11 Mar 8.1 04:37:32 10° NW 05:40:12 24° NNE 08:12:57 10° E visible
12 Mar 7.9 00:19:42 17° NNE 00:19:42 17° NNE 00:28:00 10° NNE visible
12 Mar 8.4 05:31:17 10° NNW 07:32:38 38° NE 09:06:37 10° ESE visible
13 Mar 7.8 01:03:15 22° NNE 01:03:15 22° NNE 01:22:13 10° NNE visible
13 Mar 8.7 06:24:43 10° NNW 08:56:04 55° NE 09:56:10 10° SE visible
14 Mar 7.8 01:46:45 24° N 01:46:45 24° N 02:21:49 10° NNE visible
